{"data":{"norad_id":69439,"intl_designator":"2026-126V","name":"STARLINK-37771","alt_names":[],"object_type":"PAYLOAD","status":"ACTIVE","operator":null,"country":"US","launch_date":"2026-06-07","launch_site_code":"AFWTR","launch_vehicle":null,"mission":null,"orbit_class":"UNKNOWN","rcs_meters":null,"size_class":null,"mass_kg":null,"dimensions":null,"purposes":["comms"],"wikipedia_slug":null,"has_3d_model":false,"image_url":null,"decayed_at":null,"tle_current":{"epoch":"2026-09-19T22:11:41.311680Z","epoch_age_seconds":75193,"freshness":"FRESH","line1":"1 69439U 26126V   26262.92478370  .00020379  00000+0  63157-3 0  9991","line2":"2 69439  97.2847 124.1260 0002474  94.9375 265.2150 15.33458124 17432","mean_motion":15.33458124,"eccentricity":0.0002474,"inclination_deg":97.2847,"raan_deg":124.126,"arg_perigee_deg":94.9375,"mean_anomaly_deg":265.215,"bstar":0.00063157,"rev_number":1743,"period_min":93.905400966789,"perigee_km":463.81101015133,"apogee_km":467.19724378095,"semimajor_km":6843.6411269661,"source":"CELESTRAK","updated_at":"2026-09-20T09:00:44.198055Z"}}}